{"data":{"norad_id":57333,"intl_designator":"2023-099F","name":"STARLINK-5585","alt_names":[],"object_type":"PAYLOAD","status":"ACTIVE","operator":null,"country":"US","launch_date":"2023-07-16","launch_site_code":"AFETR","launch_vehicle":null,"mission":null,"orbit_class":"UNKNOWN","rcs_meters":null,"size_class":null,"mass_kg":null,"dimensions":null,"purposes":["comms"],"wikipedia_slug":null,"has_3d_model":false,"image_url":null,"decayed_at":null,"tle_current":{"epoch":"2026-05-24T13:59:11.385888Z","epoch_age_seconds":107278,"freshness":"FRESH","line1":"1 57333U 23099F   26144.58277067  .00000814  00000+0  39095-4 0  9995","line2":"2 57333  43.0014 183.7684 0001394 271.0655  89.0037 15.27578080157682","mean_motion":15.2757808,"eccentricity":0.0001394,"inclination_deg":43.0014,"raan_deg":183.7684,"arg_perigee_deg":271.0655,"mean_anomaly_deg":89.0037,"bstar":3.9095e-5,"rev_number":15768,"period_min":94.266867196733,"perigee_km":482.09839507317,"apogee_km":484.01129535961,"semimajor_km":6861.1918452164,"source":"CELESTRAK","updated_at":"2026-05-25T13:38:18.286291Z"}}}